Vertical_Velocity
0 0 -1 1 -0 -1 -0 -1 -1 -1 -0 -0 -1 -1 -1 -0 -0 -0 -4 -2 -0 -0 -2 -1 0 -1 -1 0 -1 -0 1 -2 2 -4 1 -2 -2 -3 -1 -0 -4 -1 -4
-1 -0 -1 -1 -1 1 0 -1 -1 0 -0 -2 -1 -1 -1 -1 -1 -2 -0 -1 -1 0 0 1 -1 -0 -0 -1 -1 -0 -0 -1 -1 4 -4 -0 -1 -2 -3 0 -2 -2 -5
-1 -1 -1 -1 1 1 0 -0 -0 0 -2 -1 -1 -1 -1 -1 -0 -1 -2 -1 -1 -2 -1 -1 0 -0 1 0 -1 -1 0 1 -1 3 -1 0 -2 -1 0 -0 -2 -1 -2
-1 -0 -0 1 1 1 0 0 -0 -2 -1 0 -0 -1 -2 -1 -1 1 1 0 0 -2 -2 -1 0 -0 0 1 1 -0 1 1 1 1 1 -1 -2 -1 -1 -1 1 1 -1
-0 -0 1 1 1 -0 -1 -0 -0 -0 -0 -2 -1 -0 -1 -2 -4 -1 2 -0 1 2 -1 -1 0 0 -1 -1 1 1 -0 0 1 -0 0 -0 -2 -0 -0 -0 -0 1 1
0 0 1 1 -0 -1 -0 0 1 1 -1 -1 -1 -1 2 -2 -2 -3 -4 -1 0 -1 2 1 1 0 1 -0 -1 -1 -0 1 0 1 -0 0 -0 3 0 1 0 1 5
-0 0 -0 -1 -1 -0 1 -0 1 1 -0 -1 -1 -0 2 -0 1 -3 -3 -3 -2 1 1 1 0 0 2 2 1 -0 -0 -0 -0 -1 -2 -1 0 0 5 1 2 4 4
-0 -1 -2 -1 -1 -0 0 -0 1 0 -1 0 0 -0 -1 -3 -0 -1 -0 -3 -2 -0 -0 1 1 2 1 1 2 2 -0 -1 -0 0 -0 1 -0 1 -0 1 4 4 1
-1 -2 -2 -1 0 0 -0 1 1 1 0 0 -1 -1 -0 -3 0 2 3 0 1 -3 0 -0 2 1 1 0 0 2 1 -0 -1 1 -0 -1 1 -0 0 4 3 3 6
-2 -3 -1 0 -0 -1 0 1 -2 -2 -1 -1 -2 -2 -1 -2 -1 2 2 3 -1 4 -1 4 3 2 2 2 1 1 1 1 1 1 -1 -0 -1 -0 1 3 3 3 4
-3 -3 -0 -2 -2 -0 -1 0 -0 -0 -2 -1 -3 -2 -2 -1 -2 0 -1 1 4 2 3 5 3 2 2 1 2 3 3 2 1 0 -0 -0 -0 1 2 2 4 6 5
-3 -2 -4 -3 -0 -1 -1 -1 -0 -1 -1 -1 -0 -1 -0 -4 -1 -2 -0 0 -0 3 2 1 1 -0 1 2 3 3 3 2 1 1 -1 0 1 0 3 3 3 4 3
-2 -5 2 -1 -2 1 0 -0 -1 -1 0 -0 -1 1 4 3 4 2 1 2 0 -0 -1 1 2 2 2 4 4 3 5 3 1 1 2 2 2 4 3 3 0 2 -1
1 -1 -2 -1 -0 -3 0 0 1 1 2 2 3 1 2 6 7 9 7 2 2 3 2 1 2 2 3 5 7 5 3 1 1 2 4 3 3 4 1 2 -0 -0 4
-2 -2 -2 -2 -1 1 0 -2 -2 -3 -3 -2 -2 2 7 7 -3 -8 -1 1 0 0 3 4 7 8 6 5 4 3 3 2 2 2 3 1 0 -1 2 2 -4 19 9
-3 -2 -1 -1 -1 -1 -1 -2 -2 -3 -1 0 0 1 -5 -11 -2 1 0 1 3 4 8 9 6 4 2 0 2 1 2 3 3 1 1 2 1 -2 1 6 7 6 10
-2 -3 -2 -2 -1 -0 1 1 2 -1 0 -0 -0 -2 -3 -6 1 -1 1 0 2 4 8 4 3 2 1 -0 0 1 1 1 1 -1 1 6 -0 3 4 8 10 8 18
-2 -2 -1 -2 -1 -1 -1 -0 -0 0 -2 -2 -3 -3 0 0 -1 1 1 -2 8 7 4 3 2 1 0 1 -1 -0 1 -0 1 -2 2 1 -0 3 5 2 4 13 5
-2 -2 -2 -2 -2 -1 -1 -1 -1 -0 -1 -1 -1 -0 0 0 -2 -2 0 5 1 2 3 3 2 2 1 0 0 -1 -3 1 3 1 0 3 -0 3 1 2 11 10 11
-2 -2 -1 -2 -2 -2 -1 -1 -1 -0 -0 -1 1 2 -0 1 4 2 0 -1 1 1 0 2 3 2 1 1 0 1 -1 -6 -6 -5 1 -3 -6 -2 1 5 5 9 12
-1 -1 -2 -1 -2 -2 -1 -2 -1 -1 -0 -1 -1 -0 -0 -0 0 -0 -1 1 0 1 0 0 1 1 2 2 0 3 6 10 7 3 -0 -4 -2 -7 -2 3 7 6 4
-3 -1 -2 -2 -2 -2 -1 -1 -2 -1 -1 -1 -2 -0 0 1 0 -0 -1 -1 -0 1 2 0 0 2 -0 1 3 1 5 4 6 4 2 3 1 -3 -2 -1 4 4 5
-3 -2 -1 -2 -2 -2 -2 -1 -1 -2 -1 -0 -1 -1 1 1 1 0 -0 -0 -2 -2 1 2 -1 1 1 -1 -0 1 0 2 4 6 2 -1 2 -0 -6 -3 -1 -3 -6
-3 -3 -2 -1 -2 -1 -1 -2 -1 -1 -2 -1 0 -1 -0 0 0 -0 0 -0 -0 -2 -1 1 2 -0 1 -0 -1 -1 1 1 0 1 1 0 -2 0 -1 -2 0 -2 -8
-3 -3 -3 -2 -2 -2 -2 -2 -2 -1 -1 -1 -1 -0 -1 -1 -0 -0 0 -0 0 0 -2 -1 1 1 1 1 0 -0 -2 -2 3 -1 2 4 2 -1 -3 1 1 2 3
-3 -3 -3 -3 -3 -2 -3 -2 -1 -1 -2 -1 -1 -1 -0 -1 -0 -0 -1 -1 0 1 -0 -1 -1 -0 0 0 0 -0 1 3 -4 -4 -0 2 -1 -2 -2 -2 -0 -1 -3
Height
5664 5653 5641 5631 5620 5609 5597 5586 5575 5564 5552 5542 5533 5524 5515 5506 5497 5487 5477 5468 5458 5449 5440 5431 5423 5414 5408 5402 5397 5392 5388 5385 5384 5381 5381 5381 5383 5385 5389 5395 5401 5408 5415
5656 5645 5634 5624 5612 5600 5588 5577 5566 5555 5545 5535 5526 5517 5507 5498 5489 5479 5469 5458 5449 5440 5430 5421 5412 5404 5397 5391 5386 5382 5378 5375 5374 5373 5371 5372 5374 5376 5380 5386 5391 5397 5403
5648 5638 5627 5616 5604 5592 5580 5569 5558 5548 5538 5530 5520 5511 5501 5492 5482 5471 5460 5450 5440 5429 5419 5410 5402 5394 5387 5381 5375 5371 5368 5365 5363 5363 5362 5364 5365 5368 5372 5377 5381 5387 5394
5642 5631 5620 5608 5596 5584 5573 5562 5551 5542 5533 5525 5515 5505 5495 5486 5475 5464 5453 5442 5431 5420 5410 5401 5393 5384 5376 5370 5365 5360 5357 5355 5353 5353 5354 5355 5357 5360 5364 5368 5373 5380 5387
5636 5624 5612 5599 5587 5576 5566 5555 5546 5538 5529 5520 5510 5500 5490 5480 5468 5457 5446 5434 5423 5412 5402 5392 5384 5375 5367 5361 5355 5350 5347 5345 5343 5344 5345 5347 5350 5354 5358 5362 5368 5374 5384
5629 5617 5604 5591 5580 5570 5560 5551 5542 5534 5525 5515 5506 5496 5487 5475 5463 5451 5439 5427 5416 5406 5396 5386 5377 5369 5360 5353 5347 5342 5338 5336 5335 5336 5338 5341 5345 5349 5354 5359 5365 5374 5384
5622 5609 5597 5585 5575 5564 5555 5547 5539 5531 5522 5512 5503 5493 5483 5472 5459 5447 5434 5421 5411 5401 5391 5381 5371 5362 5355 5347 5341 5335 5331 5329 5328 5330 5333 5337 5341 5346 5351 5358 5368 5377 5388
5616 5603 5591 5580 5570 5560 5552 5545 5537 5528 5519 5510 5500 5490 5479 5468 5456 5443 5430 5418 5407 5397 5388 5377 5367 5358 5350 5343 5337 5331 5327 5324 5325 5328 5331 5335 5340 5345 5353 5362 5371 5382 5392
5611 5599 5587 5576 5566 5558 5551 5543 5535 5526 5517 5508 5498 5488 5477 5465 5453 5441 5429 5417 5406 5396 5385 5374 5364 5355 5347 5340 5334 5329 5324 5323 5325 5328 5332 5337 5342 5350 5359 5368 5378 5388 5400
5606 5595 5584 5573 5564 5557 5550 5542 5534 5525 5516 5507 5497 5487 5476 5463 5452 5440 5429 5419 5408 5397 5385 5374 5364 5356 5348 5340 5333 5328 5324 5326 5329 5333 5336 5341 5350 5358 5367 5377 5386 5396 5406
5603 5592 5582 5572 5564 5557 5550 5542 5534 5525 5516 5507 5497 5488 5476 5465 5452 5441 5431 5422 5411 5400 5389 5378 5368 5358 5350 5342 5336 5332 5332 5334 5337 5340 5345 5352 5361 5368 5377 5385 5394 5404 5415
5600 5590 5580 5571 5564 5557 5550 5543 5535 5526 5518 5509 5500 5490 5479 5467 5455 5444 5434 5424 5414 5404 5392 5381 5371 5362 5354 5348 5344 5342 5342 5344 5346 5352 5359 5366 5373 5380 5387 5395 5403 5414 5426
5598 5589 5580 5572 5565 5559 5552 5544 5536 5528 5520 5512 5502 5493 5483 5471 5460 5448 5438 5428 5419 5408 5398 5387 5378 5370 5363 5358 5355 5354 5355 5358 5363 5369 5374 5379 5385 5391 5398 5406 5416 5427 5439
5599 5590 5580 5572 5566 5560 5553 5546 5539 5531 5524 5515 5506 5496 5486 5475 5465 5455 5445 5435 5426 5417 5408 5398 5389 5382 5376 5372 5370 5370 5373 5376 5380 5384 5388 5392 5398 5404 5411 5419 5429 5439 5449
5598 5590 5581 5573 5567 5561 5555 5548 5541 5533 5525 5517 5509 5500 5491 5479 5466 5457 5449 5441 5433 5425 5418 5410 5403 5397 5393 5390 5390 5390 5392 5394 5396 5399 5403 5406 5411 5417 5423 5431 5440 5451 5462
5598 5590 5581 5574 5568 5563 5557 5550 5544 5536 5529 5522 5513 5504 5492 5481 5473 5466 5457 5449 5443 5436 5431 5424 5418 5414 5411 5409 5408 5408 5409 5410 5412 5413 5417 5419 5423 5427 5432 5440 5450 5461 5471
5599 5591 5583 5575 5570 5564 5559 5553 5547 5540 5533 5526 5517 5508 5499 5490 5482 5473 5466 5459 5453 5448 5443 5437 5433 5429 5427 5425 5424 5424 5424 5424 5425 5427 5429 5432 5434 5437 5443 5453 5462 5471 5482
5599 5592 5585 5577 5571 5566 5561 5555 5549 5543 5536 5529 5522 5514 5507 5499 5491 5482 5475 5470 5466 5459 5453 5448 5445 5442 5440 5439 5438 5438 5438 5437 5438 5439 5439 5441 5444 5449 5456 5465 5473 5482 5491
5601 5594 5588 5580 5573 5568 5563 5558 5552 5546 5540 5534 5527 5520 5513 5506 5499 5491 5485 5480 5473 5468 5463 5459 5455 5453 5452 5451 5450 5449 5449 5449 5450 5453 5454 5451 5454 5460 5468 5474 5483 5490 5498
5603 5596 5591 5584 5576 5570 5565 5560 5555 5550 5544 5539 5534 5528 5521 5515 5509 5501 5494 5487 5482 5477 5472 5468 5466 5463 5462 5461 5460 5460 5460 5461 5461 5462 5465 5468 5469 5472 5477 5485 5493 5501 5509
5605 5599 5593 5587 5580 5573 5567 5562 5557 5553 5548 5543 5538 5532 5526 5521 5515 5509 5503 5496 5491 5486 5482 5478 5475 5473 5471 5470 5469 5469 5468 5468 5469 5470 5473 5477 5482 5485 5487 5493 5501 5508 5517
5608 5601 5596 5590 5584 5577 5570 5564 5560 5556 5551 5546 5542 5537 5532 5527 5521 5516 5510 5505 5499 5494 5491 5487 5484 5481 5480 5479 5478 5477 5477 5477 5478 5480 5482 5486 5489 5493 5496 5503 5508 5514 5521
5612 5604 5598 5593 5587 5581 5575 5568 5563 5558 5555 5550 5546 5541 5537 5533 5528 5523 5518 5513 5508 5503 5499 5496 5493 5490 5488 5487 5487 5487 5486 5486 5486 5488 5490 5494 5498 5502 5505 5510 5516 5520 5524
5616 5608 5601 5595 5590 5585 5579 5574 5568 5562 5557 5554 5550 5546 5542 5538 5534 5529 5524 5520 5516 5512 5508 5504 5502 5499 5496 5495 5494 5495 5496 5495 5495 5497 5499 5501 5506 5510 5514 5517 5520 5528 5532
5621 5613 5606 5599 5593 5588 5583 5578 5572 5567 5561 5557 5553 5550 5546 5542 5538 5535 5531 5527 5523 5520 5517 5513 5510 5507 5505 5503 5502 5502 5502 5505 5504 5503 5506 5509 5512 5516 5520 5524 5527 5530 5537
5627 5619 5611 5604 5597 5591 5586 5581 5576 5571 5567 5562 5557 5553 5550 5546 5543 5539 5536 5532 5529 5527 5524 5521 5518 5515 5512 5511 5510 5510 5509 5510 5512 5513 5513 5514 5518 5521 5523 5527 5531 5536 5540